Weather reports worldwide

Advertisment
Denizli, Turkey (17237): temperature & dewpoint: 19.10.2020 04:00:00 - 25.10.2020 04:00:00 (EET)Denizli, Turkey (17237): wind speed: 19.10.2020 04:00:00 - 25.10.2020 04:00:00 (EET)Denizli, Turkey (17237): wind direction: 19.10.2020 04:00:00 - 25.10.2020 04:00:00 (EET)Denizli, Turkey (17237): reduced air pressure: 19.10.2020 04:00:00 - 25.10.2020 04:00:00 (EET)Denizli, Turkey (17237): visibility: 19.10.2020 04:00:00 - 25.10.2020 04:00:00 (EET)
Date & Time tt [°C] td [°C] ff [km/h] ff [kn] dd ppp [hPa] vv [km]
25.10.2020 04:00:00 - - - - - - -
25.10.2020 03:00:00 - - - - - - -
25.10.2020 02:00:00 - - - - - - -
25.10.2020 01:00:00 - - - - - - -
25.10.2020 00:00:00 - - - - - - -
24.10.2020 23:00:00 - - - - - - -
24.10.2020 22:00:00 - - - - - - -
24.10.2020 21:00:00 - - - - - - -
24.10.2020 20:00:00 18,9 9,7 0 0 N 1015,6 20
24.10.2020 19:00:00 19,8 9,0 2 1 SW 1015,6 20
24.10.2020 18:00:00 20,9 9,4 2 1 SSW 1015,0 20
24.10.2020 17:00:00 23,0 11,7 4 2 SW 1014,6 20
24.10.2020 16:00:00 25,9 11,2 0 0 N 1014,2 20
24.10.2020 15:00:00 26,4 10,0 0 0 N 1014,3 20
24.10.2020 14:00:00 25,7 10,2 0 0 N 1014,7 20
24.10.2020 13:00:00 24,8 10,9 2 1 N 1015,2 20
24.10.2020 12:00:00 23,8 11,4 2 1 NE 1015,9 20
24.10.2020 11:00:00 22,0 11,1 0 0 N 1016,2 20
24.10.2020 10:00:00 20,7 11,1 2 1 N 1016,8 20
24.10.2020 09:00:00 20,6 11,0 0 0 N 1017,0 20
24.10.2020 08:00:00 15,6 11,4 2 1 SE 1017,2 20
24.10.2020 07:00:00 - - - - - - -
24.10.2020 06:00:00 - - - - - - -
24.10.2020 05:00:00 - - - - - - -
24.10.2020 04:00:00 - - - - - - -
24.10.2020 03:00:00 - - - - - - -
24.10.2020 02:00:00 - - - - - - -
24.10.2020 01:00:00 - - - - - - -
24.10.2020 00:00:00 - - - - - - -
23.10.2020 23:00:00 - - - - - - -
23.10.2020 22:00:00 - - - - - - -
23.10.2020 21:00:00 - - - - - - -
23.10.2020 20:00:00 19,6 10,9 4 2 WSW 1017,5 20
23.10.2020 19:00:00 19,9 10,0 4 2 W 1017,5 20
23.10.2020 18:00:00 20,3 11,0 2 1 SW 1017,1 20
23.10.2020 17:00:00 21,9 11,9 2 1 WSW 1016,6 20
23.10.2020 16:00:00 24,7 11,2 0 0 N 1016,4 20
23.10.2020 15:00:00 26,2 9,8 2 1 NE 1016,6 20
23.10.2020 14:00:00 25,4 9,9 2 1 NNE 1016,8 20
23.10.2020 13:00:00 23,8 11,1 2 1 N 1017,8 20
23.10.2020 12:00:00 22,2 11,3 2 1 N 1018,7 20
23.10.2020 11:00:00 20,8 11,2 2 1 NNE 1019,7 20
23.10.2020 10:00:00 20,2 11,4 0 0 N 1020,2 20
23.10.2020 09:00:00 19,2 10,5 0 0 N 1020,6 20
23.10.2020 08:00:00 14,3 11,1 0 0 N 1020,8 20
23.10.2020 07:00:00 - - - - - - -
23.10.2020 06:00:00 - - - - - - -
23.10.2020 05:00:00 - - - - - - -
23.10.2020 04:00:00 - - - - - - -
23.10.2020 03:00:00 - - - - - - -
23.10.2020 02:00:00 - - - - - - -
23.10.2020 01:00:00 - - - - - - -
23.10.2020 00:00:00 - - - - - - -
22.10.2020 23:00:00 - - - - - - -
22.10.2020 22:00:00 - - - - - - -
22.10.2020 21:00:00 - - - - - - -
22.10.2020 20:00:00 17,5 10,7 0 0 N 1019,9 20
22.10.2020 19:00:00 18,1 10,2 2 1 SSW 1019,9 20
22.10.2020 18:00:00 18,7 11,1 2 1 SW 1019,6 20
22.10.2020 17:00:00 21,0 11,4 2 1 WSW 1018,9 20
22.10.2020 16:00:00 23,2 12,2 2 1 NNW 1018,9 20
22.10.2020 15:00:00 24,3 11,2 4 2 N 1018,9 20
22.10.2020 14:00:00 23,6 9,1 0 0 N 1019,2 20
22.10.2020 13:00:00 22,6 10,3 0 0 N 1020,0 20
22.10.2020 12:00:00 21,0 10,8 2 1 N 1020,9 20
22.10.2020 11:00:00 19,5 11,8 2 1 ENE 1021,5 20
22.10.2020 10:00:00 18,2 11,1 0 0 N 1021,8 20
22.10.2020 09:00:00 16,4 10,9 2 1 NE 1022,0 20
22.10.2020 08:00:00 13,4 11,2 0 0 N 1021,8 20
22.10.2020 07:00:00 - - - - - - -
22.10.2020 06:00:00 - - - - - - -
22.10.2020 05:00:00 11,8 10,3 2 1 SW 1020,7 20
22.10.2020 04:00:00 - - - - - - -
22.10.2020 03:00:00 - - - - - - -
22.10.2020 02:00:00 12,6 10,6 2 1 WSW 1020,0 20
22.10.2020 01:00:00 - - - - - - -
22.10.2020 00:00:00 - - - - - - -
21.10.2020 23:00:00 12,7 10,9 0 0 N 1020,1 20
21.10.2020 22:00:00 - - - - - - -
21.10.2020 21:00:00 - - - - - - -
21.10.2020 20:00:00 13,9 12,1 2 1 WSW 1019,6 20
21.10.2020 19:00:00 14,4 12,4 2 1 SW 1019,7 20
21.10.2020 18:00:00 15,0 12,3 0 0 N 1019,3 20
21.10.2020 17:00:00 16,0 12,3 0 0 N 1018,8 20
21.10.2020 16:00:00 16,4 11,8 2 1 NNE 1018,4 20
21.10.2020 15:00:00 15,7 12,6 0 0 N 1018,6 20
21.10.2020 14:00:00 15,7 14,0 0 0 N 1019,0 15
21.10.2020 13:00:00 16,2 14,0 2 1 E 1019,0 10
21.10.2020 12:00:00 17,3 12,8 2 1 SE 1018,8 10
21.10.2020 11:00:00 17,0 12,1 0 0 N 1018,8 20
21.10.2020 10:00:00 16,9 12,0 4 2 NW 1018,7 20
21.10.2020 09:00:00 16,2 12,2 4 2 WNW 1018,4 20
21.10.2020 08:00:00 14,9 12,0 2 1 WNW 1018,3 20
21.10.2020 07:00:00 - - - - - - -
21.10.2020 06:00:00 - - - - - - -
21.10.2020 05:00:00 13,9 10,8 2 1 WSW 1017,5 20
21.10.2020 04:00:00 - - - - - - -
21.10.2020 03:00:00 - - - - - - -
21.10.2020 02:00:00 15,0 11,0 2 1 WSW 1017,6 20
21.10.2020 01:00:00 - - - - - - -
21.10.2020 00:00:00 - - - - - - -
20.10.2020 23:00:00 17,5 11,3 5 3 WNW 1018,2 20
20.10.2020 22:00:00 - - - - - - -
20.10.2020 21:00:00 - - - - - - -
20.10.2020 20:00:00 18,0 11,6 2 1 NNW 1018,1 20
20.10.2020 19:00:00 18,1 12,4 0 0 N 1017,9 20
20.10.2020 18:00:00 18,8 12,6 2 1 WSW 1017,4 20
20.10.2020 17:00:00 20,2 11,7 0 0 N 1017,0 20
20.10.2020 16:00:00 21,6 11,6 2 1 NNW 1017,1 20
20.10.2020 15:00:00 22,7 12,0 2 1 N 1017,4 20
20.10.2020 14:00:00 21,3 11,9 0 0 N 1017,4 20
20.10.2020 13:00:00 21,0 11,9 0 0 N 1017,8 20
20.10.2020 12:00:00 20,2 13,2 4 2 NNE 1018,6 20
20.10.2020 11:00:00 19,6 12,9 2 1 SSE 1019,2 20
20.10.2020 10:00:00 18,4 12,4 2 1 ESE 1019,3 20
20.10.2020 09:00:00 16,8 12,4 0 0 N 1019,4 20
20.10.2020 08:00:00 14,9 11,6 4 2 WNW 1019,6 20
20.10.2020 07:00:00 - - - - - - -
20.10.2020 06:00:00 - - - - - - -
20.10.2020 05:00:00 15,3 12,2 0 0 N 1018,5 20
20.10.2020 04:00:00 - - - - - - -
20.10.2020 03:00:00 - - - - - - -
20.10.2020 02:00:00 15,3 13,4 0 0 N 1018,9 20
20.10.2020 01:00:00 - - - - - - -
20.10.2020 00:00:00 - - - - - - -
19.10.2020 23:00:00 16,3 13,0 4 2 W 1019,5 20
19.10.2020 22:00:00 - - - - - - -
19.10.2020 21:00:00 - - - - - - -
19.10.2020 20:00:00 16,7 16,7 4 2 WNW 1019,2 20
19.10.2020 19:00:00 17,6 17,6 2 1 WNW 1018,7 20
19.10.2020 18:00:00 17,8 17,7 0 0 N 1018,1 20
19.10.2020 17:00:00 17,9 17,8 0 0 N 1017,7 15
19.10.2020 16:00:00 18,1 17,2 2 1 S 1017,8 10
19.10.2020 15:00:00 18,3 17,1 0 0 N 1017,5 20
19.10.2020 14:00:00 18,3 17,1 0 0 N 1017,5 20
19.10.2020 13:00:00 17,8 17,7 0 0 N 1017,6 20
19.10.2020 12:00:00 17,6 17,6 2 1 N 1018,2 15
19.10.2020 11:00:00 16,6 16,6 2 1 WNW 1018,7 10
19.10.2020 10:00:00 16,2 16,2 2 1 S 1018,6 10
19.10.2020 09:00:00 16,7 16,5 5 3 NW 1017,9 10
19.10.2020 08:00:00 16,0 15,4 0 0 N 1016,9 15
19.10.2020 07:00:00 - - - - - - -
19.10.2020 06:00:00 - - - - - - -
19.10.2020 05:00:00 - - - - - - -
19.10.2020 04:00:00 - - - - - - -

tt = temperature
td = dewpoint
ff = wind speed
dd = wind direction
ppp = reduced air pressure
vv = visibility

Next stations